STARLINK-2229 (47992 NORAD) Tracking and Keplerian Element Data

This shows tracking and keplerian element data for the satellite.

Feedback or suggestion? Click here.




ElementValue
Catalog47992
NameSTARLINK-2229
Epoch Orbit198
Epoch Day173.91668981
Epoch Year2021
RAAN114.3088
Inclination53.0458
Eccentricity0.0002055
Argument of Perigee27.671
Mean Anonmoly117.2252
Mean Motion15.73205167
Decay Rate0.00012379
L11 47992U 21024R 21173.91668981 .00012379 00000-0 92455-4 0 9993
L22 47992 53.0458 114.3088 0002055 27.6710 117.2252 15.73205167 1983

Live tracking and technical data element details for STARLINK-2229 (NORAD 47992). STARLINK-2229 can be tracked NOW for your location showing map with azimuth and elevation plus other details from your city location.

Track the satellite on the map from your city or location and see movement details for azimuth, elevation, latitude, longitude, range, height, and movement on the map or in text.







IsCatalogInMostPopularTable: catalog: 47992, numindb: 42
Update: records affected: 1



GetName: 47992 STARLINK-2229

Hit Count: updated at: Thu, 24 Jun 2021 04:18:55 GMT